EW6750 Weather Reports


time (UTC)temp
C
wind
direction
speed
KPH
gust
KPH
rain 1hr
cm
rain 24hr
cm
rain mn
cm
humidity
%
barometer
mb
20260507181608 14 13 1.6 6.4 0.00 0.00 0.00 50 1014.1
20260507180643 15 53 1.6 3.2 0.00 0.00 0.00 50 1014.1
20260507175559 15 344 3.2 6.4 0.00 0.00 0.00 49 1014.1
20260507174557 15 295 3.2 6.4 0.00 0.00 0.00 48 1014.1
20260507173552 15 314 1.6 6.4 0.00 0.00 0.00 47 1014.0
20260507172548 15 308 4.8 9.7 0.00 0.00 0.00 46 1014.1
20260507171546 15 341 3.2 8.0 0.00 0.00 0.00 45 1014.1
20260507170542 15 293 3.2 4.8 0.00 0.00 0.00 44 1014.2
20260507165538 15 291 4.8 9.7 0.00 0.00 0.00 44 1014.2
20260507164555 16 335 4.8 12.9 0.00 0.00 0.00 45 1014.2
20260507163552 16 353 4.8 6.4 0.00 0.00 0.00 44 1014.2
20260507162526 16 343 4.8 9.7 0.00 0.00 0.00 45 1014.2
20260507161524 15 342 6.4 12.9 0.00 0.00 0.00 45 1014.1
20260507160519 15 323 4.8 8.0 0.00 0.00 0.00 45 1014.2
20260507155519 16 340 3.2 8.0 0.00 0.00 0.00 46 1014.2
20260507154612 16 290 4.8 12.9 0.00 0.00 0.00 45 1014.2
20260507153609 16 322 4.8 11.3 0.00 0.00 0.00 47 1014.4
20260507152625 16 329 6.4 11.3 0.00 0.00 0.00 46 1014.4
20260507150558 16 315 6.4 8.0 0.00 0.00 0.00 49 1014.4
20260507145616 16 349 4.8 8.0 0.00 0.00 0.00 49 1014.5
20260507144613 16 293 6.4 12.9 0.00 0.00 0.00 49 1014.6
20260507143549 16 2 4.8 8.0 0.00 0.00 0.00 49 1014.9
20260507142546 15 306 4.8 6.4 0.00 0.00 0.00 47 1015.0
20260507141541 16 313 4.8 9.7 0.00 0.00 0.00 49 1015.1
20260507140537 15 301 6.4 9.7 0.00 0.00 0.00 48 1015.2
20260507135534 16 336 4.8 8.0 0.00 0.00 0.00 50 1015.2
20260507134550 16 322 1.6 4.8 0.00 0.00 0.00 50 1015.4
20260507133550 15 292 4.8 6.4 0.00 0.00 0.00 50 1015.3
20260507132523 16 51 3.2 4.8 0.00 0.00 0.00 49 1015.5
20260507131520 15 282 4.8 11.3 0.00 0.00 0.00 48 1015.4
20260507130537 15 45 4.8 6.4 0.00 0.00 0.00 46 1015.4
20260507125635 15 306 8.0 12.9 0.00 0.00 0.00 45 1015.4
20260507124610 15 273 4.8 11.3 0.00 0.00 0.00 46 1015.4
20260507123608 15 0 1.6 4.8 0.00 0.00 0.00 51 1015.5
20260507122602 15 0 1.6 6.4 0.00 0.00 0.00 52 1015.6
20260507121620 14 338 4.8 6.4 0.00 0.00 0.00 52 1015.6
20260507120738 14 344 4.8 8.0 0.00 0.00 0.00 50 1015.7
20260507115552 13 10 3.2 6.4 0.00 0.00 0.00 51 1015.6
20260507114548 13 277 6.4 11.3 0.00 0.00 0.00 50 1015.8
20260507113546 13 63 1.6 4.8 0.00 0.00 0.00 52 1015.7
20260507112544 13 356 3.2 6.4 0.00 0.00 0.00 57 1015.7
20260507111539 13 359 3.2 8.0 0.00 0.00 0.00 62 1015.7
20260507110534 12 45 3.2 4.8 0.00 0.00 0.00 63 1015.9
20260507105531 12 353 1.6 3.2 0.00 0.00 0.00 65 1016.0
20260507104529 12 360 1.6 4.8 0.00 0.00 0.00 70 1016.0
20260507103525 11 5 1.6 3.2 0.00 0.00 0.00 70 1016.1
20260507102542 11 327 1.6 3.2 0.00 0.00 0.00 71 1016.1
20260507101517 11 0 0.0 3.2 0.00 0.00 0.00 71 1015.9
20260507100614 11 338 1.6 3.2 0.00 0.00 0.00 72 1016.0
20260507095610 11 0 0.0 3.2 0.00 0.00 0.00 72 1016.1
20260507094607 11 315 0.0 4.8 0.00 0.00 0.00 73 1016.1
20260507093625 10 358 1.6 3.2 0.00 0.00 0.00 73 1016.1
20260507092601 10 334 3.2 4.8 0.00 0.00 0.00 75 1016.1
20260507091557 10 0.0 1.6 0.00 0.00 0.00 76 1016.1
20260507090636 10 0 1.6 3.2 0.00 0.00 0.00 76 1016.1
20260507085551 9 345 1.6 3.2 0.00 0.00 0.00 76 1016.1
20260507084547 9 334 1.6 3.2 0.00 0.00 0.00 77 1016.1
20260507083542 9 15 0.0 3.2 0.00 0.00 0.00 77 1016.0
20260507082539 9 45 0.0 3.2 0.00 0.00 0.00 78 1016.0
20260507081535 9 344 1.6 6.4 0.00 0.00 0.00 79 1016.1
20260507080533 9 45 1.6 4.8 0.00 0.00 0.00 80 1016.3
20260507075530 8 55 0.0 3.2 0.00 0.00 0.00 80 1016.2
20260507074546 8 30 1.6 4.8 0.00 0.00 0.00 81 1016.1
20260507073521 8 0 0.0 3.2 0.00 0.00 0.00 81 1016.0
20260507072519 8 345 0.0 3.2 0.00 0.00 0.00 81 1016.1
20260507071614 8 60 1.6 3.2 0.00 0.00 0.00 81 1016.0
20260507070611 8 0.0 3.2 0.00 0.00 0.00 81 1015.9
20260507065609 7 18 0.0 3.2 0.00 0.00 0.00 81 1015.9
20260507064603 7 33 1.6 3.2 0.00 0.00 0.00 81 1015.9
20260507063600 7 330 1.6 6.4 0.00 0.00 0.00 82 1015.8
20260507062558 7 13 1.6 4.8 0.00 0.00 0.00 82 1015.9
20260507061615 7 341 3.2 4.8 0.00 0.00 0.00 83 1015.8
20260507060612 7 20 1.6 4.8 0.00 0.00 0.00 89 1015.7
20260507055546 7 15 0.0 3.2 0.00 0.00 0.00 90 1015.8
20260507054542 7 0.0 3.2 0.00 0.00 0.00 90 1015.6
20260507053559 6 23 0.0 3.2 0.00 0.00 0.00 89 1015.5
20260507052535 6 0.0 1.6 0.00 0.00 0.00 88 1015.6
20260507051552 6 45 0.0 3.2 0.00 0.00 0.00 87 1015.6
20260507050529 6 0.0 0.0 0.00 0.00 0.00 86 1015.6
20260507045545 5 0.0 0.0 0.00 0.00 0.00 85 1015.4
20260507044522 5 0.0 0.0 0.00 0.00 0.00 84 1015.4
20260507043540 6 0.0 0.0 0.00 0.00 0.00 84 1015.5
20260507042616 6 0.0 0.0 0.00 0.00 0.00 83 1015.5
20260507041614 6 0.0 0.0 0.00 0.00 0.00 83 1015.5
20260507040608 6 0.0 0.0 0.00 0.00 0.00 82 1015.5
20260507035604 6 0.0 0.0 0.00 0.00 0.00 82 1015.5
20260507034602 6 0.0 1.6 0.00 0.00 0.00 82 1015.6
20260507033558 6 0.0 0.0 0.00 0.00 0.00 82 1015.5
20260507032555 6 0.0 0.0 0.00 0.00 0.00 81 1015.6
20260507031550 6 0.0 0.0 0.00 0.00 0.00 81 1015.8
20260507030546 6 0.0 0.0 0.00 0.00 0.00 81 1015.7
20260507025545 7 45 0.0 3.2 0.00 0.00 0.00 81 1015.7
20260507024540 7 0 0.0 3.2 0.00 0.00 0.00 81 1015.7
20260507023558 7 0.0 0.0 0.00 0.00 0.00 80 1015.7
20260507022533 7 0.0 1.6 0.00 0.00 0.00 80 1015.7
20260507021551 7 34 0.0 3.2 0.00 0.00 0.00 80 1015.7
20260507020527 7 27 0.0 3.2 0.00 0.00 0.00 80 1015.6
20260507015522 7 45 0.0 3.2 0.00 0.00 0.00 79 1015.6
20260507014518 7 330 1.6 3.2 0.00 0.00 0.00 80 1015.6
20260507013535 7 348 1.6 6.4 0.00 0.00 0.00 74 1015.7
20260507012614 7 341 1.6 4.8 0.00 0.00 0.00 79 1015.6
20260507011629 7 0.0 1.6 0.00 0.00 0.00 81 1015.9
20260507010607 7 0.0 1.6 0.00 0.00 0.00 82 1015.9
20260507005601 7 0.0 1.6 0.00 0.00 0.00 82 1015.9
20260507004558 7 45 0.0 6.4 0.00 0.00 0.00 82 1015.9
20260507003554 7 45 0.0 3.2 0.00 0.00 0.00 82 1015.8
20260507002550 7 45 0.0 3.2 0.00 0.00 0.00 82 1016.0
20260507001548 7 47 1.6 4.8 0.00 0.00 0.00 82 1016.0
20260507000545 6 28 1.6 4.8 0.00 0.00 0.00 82 1015.9
20260506235540 6 40 1.6 6.4 0.00 0.00 0.00 82 1016.0
20260506234536 6 61 1.6 4.8 0.00 0.00 0.00 81 1016.1
20260506233533 7 329 1.6 6.4 0.00 0.00 0.00 81 1016.2
20260506232530 7 36 3.2 6.4 0.00 0.00 0.00 81 1016.2
20260506231526 7 32 1.6 3.2 0.00 0.00 0.00 81 1016.1
20260506230524 7 0 3.2 6.4 0.00 0.00 0.00 81 1016.1
20260506225520 7 13 3.2 6.4 0.00 0.00 0.00 80 1015.9
20260506224537 7 4 1.6 3.2 0.00 0.00 0.00 80 1016.1
20260506223612 7 3 1.6 4.8 0.00 0.00 0.00 80 1016.1
20260506222608 7 45 0.0 3.2 0.00 0.00 0.00 73 1015.9
20260506221606 7 18 1.6 4.8 0.00 0.00 0.00 72 1016.0
20260506220602 7 0.0 3.2 0.00 0.00 0.00 72 1015.9
20260506215600 7 0 0.0 3.2 0.00 0.00 0.00 72 1015.8
20260506214558 7 0.0 3.2 0.00 0.00 0.00 72 1015.8
20260506213552 7 45 0.0 4.8 0.00 0.00 0.00 71 1015.8
20260506212550 8 36 1.6 3.2 0.00 0.00 0.00 71 1015.8
20260506211544 8 0.0 3.2 0.00 0.00 0.00 71 1015.8
20260506210541 8 0.0 1.6 0.00 0.00 0.00 70 1015.8
20260506205538 8 0.0 1.6 0.00 0.00 0.00 70 1015.7
20260506204536 8 90 0.0 3.2 0.00 0.00 0.00 70 1015.7
20260506203530 8 0 0.0 3.2 0.00 0.00 0.00 70 1015.7
20260506202528 8 0 0.0 3.2 0.00 0.00 0.00 68 1015.6
20260506201523 9 45 0.0 3.2 0.00 0.00 0.00 67 1015.5
20260506200541 9 338 0.0 3.2 0.00 0.00 0.00 66 1015.3
20260506195517 9 342 0.0 3.2 0.00 0.00 0.00 65 1015.3
20260506194633 10 90 0.0 3.2 0.00 0.00 0.00 64 1015.2
20260506193609 10 225 0.0 3.2 0.00 0.00 0.00 63 1015.2
20260506192606 10 0 1.6 4.8 0.00 0.00 0.00 62 1015.0
20260506191623 11 30 1.6 4.8 0.00 0.00 0.00 61 1015.0
20260506190600 11 0 1.6 3.2 0.00 0.00 0.00 61 1014.9
20260506185615 11 49 1.6 6.4 0.00 0.00 0.00 60 1015.0
20260506184554 11 110 3.2 6.4 0.00 0.00 0.00 60 1014.9
20260506183549 12 36 3.2 6.4 0.00 0.00 0.00 57 1014.8
20260506182546 12 15 1.6 6.4 0.00 0.00 0.00 54 1014.8